ZF1RC George Town KY current weather conditions

sailwx.info

Wind from 186

Air temperature 32.8° C
Dewpoint 24.2° C

Last reported at 2016-Jul-01 17:50 UTC.
Time now 2016-Jul-01 19:04 UTC

Location: N 19°16' W 081°23'.
View on Google Maps.

See reports from other nearby stations

  
Tides and Currents Weather Stations Pressure Air Temp Water Temp Dewpoint Dewpoint Depression Visibility Wind Speed Wind Dir Waves Ship Positions
date/time (UTC)wind fromknots sea level pressurealtimeterstation pressurevisibilityair tempwater tempwave heightnotes
2016-Jul-01 17:50 186 32.8
2016-Jul-01 17:40 267 0 gusting 4 32.8
2016-Jul-01 17:30 014 0 gusting 4 32.2
2016-Jul-01 17:20 286 0 gusting 1 32.2
2016-Jul-01 17:10 313 0 gusting 7 32.2
2016-Jul-01 17:00 078 1 gusting 2 32.2
2016-Jul-01 16:50 033 0 gusting 6 32.2
2016-Jul-01 16:40 143 0 gusting 2 32.2
2016-Jul-01 16:30 023 32.2
2016-Jul-01 16:20 096 3 gusting 6 32.2
2016-Jul-01 16:10 233 0 gusting 0 32.2
2016-Jul-01 16:00 080 0 gusting 4 32.2
2016-Jul-01 15:50 118 1 gusting 1 32.2
2016-Jul-01 15:40 125 0 gusting 1 32.2
2016-Jul-01 15:30 130 1 gusting 4 32.2
2016-Jul-01 15:20 154 1 gusting 6 32.2
2016-Jul-01 15:10 327 0 gusting 1 32.2
2016-Jul-01 15:00 174 0 gusting 4 32.2
2016-Jul-01 14:50 061 0 gusting 6 31.7
2016-Jul-01 14:40 126 31.7
2016-Jul-01 14:30 083 1 gusting 6 31.7
2016-Jul-01 14:20 106 31.7
2016-Jul-01 14:10 132 31.7
2016-Jul-01 14:00 166 0 gusting 0 31.7
2016-Jul-01 13:50 086 1 gusting 4 31.7
2016-Jul-01 13:40 124 0 gusting 6 31.1
2016-Jul-01 13:30 088 1 gusting 4 30.6
2016-Jul-01 13:20 101 1 gusting 4 30.6
2016-Jul-01 13:10 090 5 gusting 7 29.4
2016-Jul-01 13:00 078 2 gusting 5 30.0
2016-Jul-01 12:50 085 4 gusting 7 29.4
2016-Jul-01 12:40 081 3 gusting 6 29.4
2016-Jul-01 12:30 082 4 gusting 6 28.9
2016-Jul-01 12:20 068 3 gusting 6 28.3
2016-Jul-01 12:10 043 2 gusting 2 28.3
2016-Jul-01 12:00 036 0 gusting 5 27.8
2016-Jul-01 11:50 102 1 gusting 2 26.7
2016-Jul-01 11:40 071 1 gusting 2 26.1
2016-Jul-01 11:30 093 1 gusting 1 26.1
2016-Jul-01 11:20 079 1 gusting 1 25.6
2016-Jul-01 11:10 079 2 gusting 4 25.6
2016-Jul-01 11:00 083 1 gusting 2 25.6
2016-Jul-01 10:50 092 25.6
2016-Jul-01 10:40 118 0 gusting 1 25.6
2016-Jul-01 10:30 090 2 gusting 2 25.6
2016-Jul-01 10:20 098 1 gusting 2 25.6
2016-Jul-01 10:10 082 1 gusting 2 25.6
2016-Jul-01 10:00 086 1 gusting 2 25.6
2016-Jul-01 09:50 044 1 gusting 2 25.6
2016-Jul-01 09:40 071 1 gusting 1 25.6
2016-Jul-01 09:30 078 1 gusting 2 25.6
2016-Jul-01 09:20 099 0 gusting 1 25.6
2016-Jul-01 09:10 078 0 gusting 2 25.6
2016-Jul-01 09:00 047 0 gusting 1 25.6
2016-Jul-01 08:50 091 1 gusting 1 25.6
2016-Jul-01 08:40 082 0 gusting 0 25.6
2016-Jul-01 08:30 093 0 gusting 1 25.6
2016-Jul-01 08:20 091 0 gusting 1 25.6
2016-Jul-01 08:10 084 0 gusting 1 25.6
2016-Jul-01 08:00 074 1 gusting 2 25.6
2016-Jul-01 07:50 108 1 gusting 1 25.6
2016-Jul-01 07:40 122 1 gusting 1 26.1
2016-Jul-01 07:30 081 1 gusting 1 26.1
2016-Jul-01 07:20 080 1 gusting 1 26.1
2016-Jul-01 07:10 052 0 gusting 2 26.1
2016-Jul-01 07:00 119 1 gusting 1 26.1
2016-Jul-01 06:50 072 0 gusting 1 26.1
2016-Jul-01 06:40 066 0 gusting 1 26.1
2016-Jul-01 06:30 088 2 gusting 2 26.1
2016-Jul-01 06:20 104 1 gusting 1 26.1
2016-Jul-01 06:10 079 2 gusting 2 26.1
2016-Jul-01 06:00 095 1 gusting 1 26.7
2016-Jul-01 05:50 041 1 gusting 2 26.7
2016-Jul-01 05:40 042 2 gusting 2 26.7
2016-Jul-01 05:30 102 1 gusting 2 26.7
2016-Jul-01 05:20 106 0 gusting 1 26.7
2016-Jul-01 05:10 071 1 gusting 2 26.7
2016-Jul-01 05:00 087 2 gusting 4 26.7
2016-Jul-01 04:50 102 2 gusting 5 26.7
2016-Jul-01 04:40 080 1 gusting 2 26.7
2016-Jul-01 04:30 133 1 gusting 2 27.2
2016-Jul-01 04:20 085 2 gusting 4 27.2
2016-Jul-01 04:10 090 2 gusting 5 26.7
2016-Jul-01 04:00 045 2 gusting 4 27.2
2016-Jul-01 03:50 103 1 gusting 4 26.7
2016-Jul-01 03:40 101 1 gusting 2 26.7
2016-Jul-01 03:30 023 1 gusting 1 26.7
2016-Jul-01 03:20 093 2 gusting 4 26.7
2016-Jul-01 03:10 066 1 gusting 2 26.7
2016-Jul-01 03:00 101 4 gusting 5 26.7
2016-Jul-01 02:50 096 1 gusting 2 26.7
2016-Jul-01 02:40 104 2 gusting 4 26.7
2016-Jul-01 02:30 161 1 gusting 2 27.2
2016-Jul-01 02:20 098 0 gusting 1 27.2
2016-Jul-01 02:10 079 1 gusting 2 27.2
2016-Jul-01 02:00 066 0 gusting 2 27.2
2016-Jul-01 01:50 084 1 gusting 2 27.2
2016-Jul-01 01:40 083 2 gusting 4 27.2
2016-Jul-01 01:30 098 2 gusting 4 27.8
2016-Jul-01 01:20 114 0 gusting 4 27.8
2016-Jul-01 01:10 066 0 gusting 1 27.8
2016-Jul-01 01:00 064 3 gusting 4 27.8
2016-Jul-01 00:50 135 1 gusting 5 27.8
2016-Jul-01 00:40 071 0 gusting 4 28.3
2016-Jul-01 00:30 098 2 gusting 4 28.3
2016-Jul-01 00:20 101 2 gusting 2 28.3
2016-Jul-01 00:10 113 1 gusting 1 28.3
2016-Jul-01 00:00 002 0 gusting 2 28.3
2016-Jun-30 23:50 050 0 gusting 6 28.9
2016-Jun-30 23:40 109 0 gusting 1 29.4
2016-Jun-30 23:30 208 0 gusting 4 29.4
2016-Jun-30 23:20 035 0 gusting 2 30.0
2016-Jun-30 23:10 179 0 gusting 1 30.0
2016-Jun-30 23:00 136 30.6
2016-Jun-30 22:54 189 0 gusting 0 30.6
2016-Jun-30 22:50 323 0 gusting 4 30.6
2016-Jun-30 22:40 136 0 gusting 2 30.6
2016-Jun-30 22:30 223 0 gusting 1 30.6
2016-Jun-30 22:20 032 31.1
2016-Jun-30 22:10 051 0 gusting 2 30.6
2016-Jun-30 22:00 081 0 gusting 2 31.1
2016-Jun-30 21:50 072 1 gusting 2 31.1
2016-Jun-30 21:40 164 0 gusting 2 31.7
2016-Jun-30 21:30 148 0 gusting 1 31.7
2016-Jun-30 21:20 246 31.7
2016-Jun-30 21:10 114 31.7
2016-Jun-30 21:00 324 31.7
2016-Jun-30 20:50 089 1 gusting 2 31.7
2016-Jun-30 20:40 137 0 gusting 1 31.7
2016-Jun-30 20:30 187 1 gusting 2 31.7
2016-Jun-30 20:20 224 0 gusting 2 32.2
2016-Jun-30 20:10 137 32.2
2016-Jun-30 20:00 154 0 gusting 0 32.2
2016-Jun-30 19:50 036 31.7
2016-Jun-30 19:40 120 0 gusting 8 32.2
2016-Jun-30 19:30 266 0 gusting 1 32.2
2016-Jun-30 19:20 136 0 gusting 7 32.2
2016-Jun-30 19:10 095 1 gusting 5 31.7
2016-Jun-30 19:00 276 32.2
2016-Jun-30 18:50 094 0 gusting 2 32.2
2016-Jun-30 18:40 270 0 gusting 1 32.2
2016-Jun-30 18:30 096 0 gusting 2 32.2
2016-Jun-30 18:20 173 0 gusting 0 32.2
2016-Jun-30 18:10 154 0 gusting 1 32.2
2016-Jun-30 18:00 033 0 gusting 0 32.2
2016-Jun-30 17:50 062 1 gusting 2 32.2
2016-Jun-30 17:40 122 1 gusting 4 32.2
2016-Jun-30 17:30 075 0 gusting 0 32.2
2016-Jun-30 17:20 100 0 gusting 0 32.2
2016-Jun-30 17:10 168 0 gusting 1 32.2
2016-Jun-30 17:00 150 0 gusting 5 32.2
2016-Jun-30 16:50 074 31.7
2016-Jun-30 16:40 124 2 gusting 5 31.7
2016-Jun-30 16:30 093 1 gusting 2 32.2
2016-Jun-30 16:20 354 0 gusting 2 32.2
2016-Jun-30 16:00 266 0 gusting 4 31.7
2016-Jun-30 15:40 177 31.7
2016-Jun-30 15:30 119 0 gusting 1 31.7
2016-Jun-30 15:20 147 0 gusting 0 31.7
2016-Jun-30 15:10 334 2 gusting 2 31.7
2016-Jun-30 15:00 147 1 gusting 2 31.1
2016-Jun-30 14:50 087 0 gusting 2 31.1
2016-Jun-30 14:30 176 31.1
2016-Jun-30 14:20 104 31.1
2016-Jun-30 14:10 116 4 gusting 6 31.1
2016-Jun-30 14:00 071 8 gusting 10 30.6
2016-Jun-30 13:50 042 3 gusting 5 30.0
2016-Jun-30 13:40 136 1 gusting 7 28.9
2016-Jun-30 13:30 074 2 gusting 6 28.9
2016-Jun-30 13:20 099 5 gusting 6 28.9
2016-Jun-30 13:10 051 3 gusting 6 28.9
2016-Jun-30 13:00 084 4 gusting 7 28.9
2016-Jun-30 12:50 034 6 gusting 8 28.9
2016-Jun-30 12:40 061 5 gusting 6 28.3
2016-Jun-30 12:30 072 3 gusting 6 28.3
2016-Jun-30 12:20 062 2 gusting 6 27.8
2016-Jun-30 12:10 086 2 gusting 5 27.2
2016-Jun-30 12:00 059 2 gusting 2 27.2
2016-Jun-30 11:50 095 2 gusting 2 26.1
2016-Jun-30 11:40 095 1 gusting 2 25.6
2016-Jun-30 11:30 080 1 gusting 1 25.0
2016-Jun-30 11:20 065 0 gusting 1 25.0
2016-Jun-30 11:10 098 1 gusting 1 24.4
2016-Jun-30 11:00 105 0 gusting 1 24.4
2016-Jun-30 10:50 099 0 gusting 1 24.4
2016-Jun-30 10:40 099 1 gusting 1 24.4
2016-Jun-30 10:30 093 1 gusting 1 25.0
2016-Jun-30 10:20 052 0 gusting 1 24.4
2016-Jun-30 10:10 087 1 gusting 1 25.0
2016-Jun-30 10:00 091 0 gusting 1 25.0
2016-Jun-30 09:50 105 0 gusting 1 25.0
2016-Jun-30 09:40 119 0 gusting 2 25.0
2016-Jun-30 09:30 093 1 gusting 1 24.4
2016-Jun-30 09:20 092 1 gusting 1 24.4
2016-Jun-30 09:10 083 0 gusting 1 24.4
2016-Jun-30 09:00 105 0 gusting 1 24.4
2016-Jun-30 08:50 107 1 gusting 1 24.4
2016-Jun-30 08:40 074 25.0
2016-Jun-30 08:30 103 0 gusting 1 25.0
2016-Jun-30 08:20 067 0 gusting 1 25.0
2016-Jun-30 08:10 095 0 gusting 0 25.0
2016-Jun-30 08:00 106 25.6
2016-Jun-30 07:50 078 0 gusting 0 25.6
2016-Jun-30 07:40 069 1 gusting 1 25.6
2016-Jun-30 07:30 079 2 gusting 2 25.6
2016-Jun-30 07:20 082 1 gusting 2 25.6
2016-Jun-30 07:10 076 1 gusting 1 25.6
2016-Jun-30 07:00 082 1 gusting 2 25.6
2016-Jun-30 06:50 090 1 gusting 2 25.6
2016-Jun-30 06:40 070 1 gusting 2 25.6
2016-Jun-30 06:30 053 0 gusting 4 25.6
2016-Jun-30 06:20 091 2 gusting 2 25.6
2016-Jun-30 06:10 074 1 gusting 1 25.6
2016-Jun-30 06:00 122 0 gusting 1 25.6
2016-Jun-30 05:50 088 1 gusting 1 25.6
2016-Jun-30 05:40 087 1 gusting 4 25.6
2016-Jun-30 05:30 071 2 gusting 2 25.6
2016-Jun-30 05:20 085 0 gusting 1 25.6
2016-Jun-30 05:10 125 0 gusting 1 26.1
2016-Jun-30 05:00 116 1 gusting 4 26.1
2016-Jun-30 04:50 110 2 gusting 4 26.1
2016-Jun-30 04:40 084 1 gusting 1 25.6
2016-Jun-30 04:30 082 1 gusting 2 26.1
2016-Jun-30 04:20 079 1 gusting 2 26.1
2016-Jun-30 04:10 067 1 gusting 1 26.1
2016-Jun-30 04:00 085 2 gusting 1 26.1
2016-Jun-30 03:50 121 2 gusting 2 26.1
2016-Jun-30 03:40 086 1 gusting 2 26.1
2016-Jun-30 03:30 077 1 gusting 2 26.1
2016-Jun-30 03:20 100 1 gusting 1 26.1
2016-Jun-30 03:00 110 1 gusting 1 26.7
2016-Jun-30 02:50 111 2 gusting 2 26.7
2016-Jun-30 01:30 090 1 gusting 1 27.2
2016-Jun-30 01:20 096 0 gusting 2 27.2
2016-Jun-30 01:10 110 1 gusting 4 27.2
2016-Jun-30 01:00 110 1 gusting 5 27.2
2016-Jun-30 00:50 082 1 gusting 1 27.8
2016-Jun-30 00:40 082 0 gusting 5 27.8
2016-Jun-30 00:30 048 2 gusting 6 27.8
2016-Jun-30 00:20 140 0 gusting 4 28.3
2016-Jun-30 00:10 121 0 gusting 2 28.3
2016-Jun-30 00:00 177 1 gusting 4 28.3
2016-Jun-29 23:50 190 0 gusting 1 28.9
2016-Jun-29 23:40 072 0 gusting 2 28.9
2016-Jun-29 23:30 129 0 gusting 1 29.4
2016-Jun-29 23:20 002 29.4
2016-Jun-29 23:10 276 30.0
2016-Jun-29 23:00 008 0 gusting 0 30.6
2016-Jun-29 22:54 092 0 gusting 0 30.6
2016-Jun-29 22:50 196 0 gusting 0 30.6
2016-Jun-29 22:40 145 0 gusting 0 30.6
2016-Jun-29 22:30 160 30.6
2016-Jun-29 22:20 226 31.7
2016-Jun-29 22:10 184 0 gusting 2 31.1
2016-Jun-29 22:00 038 31.7
2016-Jun-29 21:40 279 0 gusting 1 31.1
2016-Jun-29 21:30 149 31.7
2016-Jun-29 21:20 177 1 gusting 2 31.7
2016-Jun-29 21:10 282 0 gusting 6 31.7
2016-Jun-29 21:00 148 0 gusting 0 31.7
2016-Jun-29 20:50 189 31.7
2016-Jun-29 20:40 250 0 gusting 0 31.7
2016-Jun-29 20:30 136 1 gusting 2 31.7
2016-Jun-29 20:20 161 31.7
2016-Jun-29 20:10 295 0 gusting 1 31.7
2016-Jun-29 20:00 144 1 gusting 1 31.7
2016-Jun-29 19:50 181 0 gusting 1 31.7
2016-Jun-29 19:40 108 0 gusting 0 31.7
2016-Jun-29 19:30 306 31.7
2016-Jun-29 19:20 032 32.2
2016-Jun-29 19:10 072 31.7
2016-Jun-29 19:00 075 0 gusting 1 32.2